Location: ??????
(55.7522°N, 37.6156°E)
Time: 17:06:06
(UTC+00:00)

Cosmos 1954 Rocket - Pass Details

Date: 14 June 2025
Orbit: 749 x 776 km, 74.0° (Epoch: 13 July)

Event Time Altitude Azimuth Distance (km) Brightness Sun altitude
Exits shadow 21:27:42 14° 189° (S) 2,005 5.5 -10.9°
Maximum altitude 21:32:03 61° 112° (ESE) 862 4.2 -10.9°
Drops below altitude 10° 21:37:11 10° 33° (NNE) 2,295 7.5 -10.9°
Sets 21:39:34 0° 30° (NNE) 3,220 8.4 -10.9°
